TimeEDT,TemperatureF,Dew PointF,Humidity,Sea Level PressureIn,VisibilityMPH,Wind Direction,Wind SpeedMPH,Gust SpeedMPH,PrecipitationIn,Events,Conditions,WindDirDegrees,DateUTC
12:15 AM,72.9,72.9,100,29.94,10.0,Calm,Calm,-,N/A,,Scattered Clouds,0,2013-07-22 04:15:00
12:35 AM,75.2,74.5,98,29.94,10.0,Calm,Calm,-,N/A,,Mostly Cloudy,0,2013-07-22 04:35:00
12:55 AM,75.2,74.8,99,29.94,10.0,SSE,5.8,-,N/A,,Overcast,160,2013-07-22 04:55:00
1:15 AM,75.2,73.8,95,29.93,10.0,SSE,6.9,-,N/A,,Overcast,160,2013-07-22 05:15:00
1:35 AM,75.2,74.5,98,29.93,10.0,Calm,Calm,-,N/A,Rain,Light Rain,0,2013-07-22 05:35:00
1:55 AM,72.7,72.7,100,29.92,-9999.0,Calm,Calm,-,N/A,Rain,Light Rain,0,2013-07-22 05:55:00
2:15 AM,72.7,72.7,100,29.92,7.0,Calm,Calm,-,N/A,,Scattered Clouds,0,2013-07-22 06:15:00
2:35 AM,72.7,72.7,100,29.90,5.0,Calm,Calm,-,N/A,,Clear,0,2013-07-22 06:35:00
2:55 AM,72.7,72.7,100,29.89,4.0,Calm,Calm,-,N/A,,Scattered Clouds,0,2013-07-22 06:55:00
3:15 AM,72.7,72.7,100,29.89,3.0,Calm,Calm,-,N/A,,Scattered Clouds,0,2013-07-22 07:15:00
3:35 AM,72.7,72.7,100,29.89,3.0,Calm,Calm,-,N/A,,Scattered Clouds,0,2013-07-22 07:35:00
3:55 AM,72.7,72.7,100,29.88,3.0,Calm,Calm,-,N/A,,Mostly Cloudy,0,2013-07-22 07:55:00
4:15 AM,72.7,72.7,100,29.88,2.5,Calm,Calm,-,N/A,Rain,Light Rain,0,2013-07-22 08:15:00
4:35 AM,72.7,72.7,100,29.88,3.0,Calm,Calm,-,N/A,Rain,Light Rain,0,2013-07-22 08:35:00
4:55 AM,72.7,72.7,100,29.87,3.0,Calm,Calm,-,N/A,,Scattered Clouds,0,2013-07-22 08:55:00
5:15 AM,72.7,72.7,100,29.87,4.0,Calm,Calm,-,N/A,,Scattered Clouds,0,2013-07-22 09:15:00
5:35 AM,72.7,72.7,100,29.87,3.0,Calm,Calm,-,N/A,Rain,Light Rain,0,2013-07-22 09:35:00
5:55 AM,72.7,72.7,100,29.88,3.0,Calm,Calm,-,N/A,,Scattered Clouds,0,2013-07-22 09:55:00
6:15 AM,72.7,72.7,100,29.88,2.5,Calm,Calm,-,N/A,,Mostly Cloudy,0,2013-07-22 10:15:00
6:35 AM,72.7,72.7,100,29.89,4.0,WSW,4.6,-,N/A,Rain,Rain,240,2013-07-22 10:35:00
6:55 AM,72.7,72.7,100,29.89,3.0,WSW,3.5,-,N/A,Rain,Light Rain,240,2013-07-22 10:55:00
7:15 AM,72.7,72.7,100,29.89,4.0,Calm,Calm,-,N/A,Rain,Light Rain,0,2013-07-22 11:15:00
7:35 AM,72.7,72.7,100,29.89,5.0,West,3.5,-,N/A,,Mostly Cloudy,280,2013-07-22 11:35:00
7:55 AM,72.7,72.7,100,29.88,5.0,Calm,Calm,-,N/A,,Mostly Cloudy,0,2013-07-22 11:55:00
8:15 AM,72.7,72.7,100,29.89,7.0,WSW,5.8,-,N/A,,Overcast,240,2013-07-22 12:15:00
8:35 AM,72.7,72.7,100,29.89,7.0,SW,4.6,-,N/A,,Overcast,230,2013-07-22 12:35:00
8:55 AM,72.7,72.7,100,29.89,10.0,West,3.5,-,N/A,,Mostly Cloudy,280,2013-07-22 12:55:00
9:35 AM,72.7,71.8,97,29.89,10.0,Calm,Calm,-,N/A,,Overcast,0,2013-07-22 13:35:00
9:55 AM,72.7,71.2,95,29.89,10.0,WSW,4.6,-,N/A,,Overcast,240,2013-07-22 13:55:00
10:35 AM,74.5,73.2,96,29.88,10.0,SW,4.6,-,N/A,,Mostly Cloudy,230,2013-07-22 14:35:00
10:55 AM,73.4,72.3,96,29.88,10.0,WSW,5.8,-,N/A,,Overcast,240,2013-07-22 14:55:00
11:15 AM,74.7,73.2,95,29.88,10.0,SW,8.1,-,N/A,,Mostly Cloudy,220,2013-07-22 15:15:00
11:35 AM,73.6,72.3,96,29.88,10.0,WSW,4.6,-,N/A,,Overcast,250,2013-07-22 15:35:00
11:55 AM,72.7,72.5,99,29.88,4.0,SW,6.9,-,N/A,Rain,Rain,230,2013-07-22 15:55:00
12:15 PM,72.7,72.7,100,29.88,4.0,SW,3.5,-,N/A,Rain,Rain,220,2013-07-22 16:15:00
12:35 PM,72.7,72.7,100,29.87,5.0,WSW,3.5,-,N/A,Rain,Light Rain,250,2013-07-22 16:35:00
12:55 PM,72.7,72.7,100,29.87,7.0,WSW,3.5,-,N/A,,Overcast,250,2013-07-22 16:55:00
1:15 PM,72.7,72.7,100,29.87,5.0,SW,3.5,-,N/A,Rain,Rain,230,2013-07-22 17:15:00
1:35 PM,72.7,72.7,100,29.86,7.0,WSW,3.5,-,N/A,,Overcast,250,2013-07-22 17:35:00
1:55 PM,72.7,72.7,100,29.85,7.0,Calm,Calm,-,N/A,,Mostly Cloudy,0,2013-07-22 17:55:00
2:15 PM,75.2,74.8,99,29.84,7.0,Calm,Calm,-,N/A,,Overcast,0,2013-07-22 18:15:00
2:35 PM,75.2,73.8,95,29.83,10.0,SSW,4.6,-,N/A,,Overcast,200,2013-07-22 18:35:00
2:55 PM,76.5,74.3,93,29.83,10.0,SW,3.5,-,N/A,,Overcast,220,2013-07-22 18:55:00
3:15 PM,77.9,74.1,88,29.82,10.0,Calm,Calm,-,N/A,,Mostly Cloudy,0,2013-07-22 19:15:00
3:35 PM,77.9,73.2,85,29.82,10.0,WSW,6.9,-,N/A,,Overcast,240,2013-07-22 19:35:00
3:55 PM,77.9,73.4,86,29.82,10.0,SW,5.8,-,N/A,,Overcast,220,2013-07-22 19:55:00
4:15 PM,77.9,72.7,84,29.81,10.0,WSW,6.9,-,N/A,,Overcast,240,2013-07-22 20:15:00
4:35 PM,77.9,73.2,85,29.82,10.0,WSW,4.6,-,N/A,,Overcast,250,2013-07-22 20:35:00
4:55 PM,73.6,72.9,98,29.82,4.0,North,6.9,-,N/A,Rain,Heavy Rain,350,2013-07-22 20:55:00
5:15 PM,72.7,72.7,100,29.82,7.0,North,3.5,-,N/A,Rain,Light Rain,10,2013-07-22 21:15:00
5:35 PM,72.7,72.7,100,29.81,2.5,Calm,Calm,-,N/A,Rain,Rain,0,2013-07-22 21:35:00
5:55 PM,72.7,72.7,100,29.81,7.0,Calm,Calm,-,N/A,Rain,Light Rain,0,2013-07-22 21:55:00
6:15 PM,72.7,72.7,100,29.80,5.0,Calm,Calm,-,N/A,,Light Drizzle,0,2013-07-22 22:15:00
6:35 PM,72.7,72.7,100,29.80,7.0,Calm,Calm,-,N/A,,Overcast,0,2013-07-22 22:35:00
6:55 PM,75.2,74.7,98,29.80,10.0,Calm,Calm,-,N/A,,Mostly Cloudy,0,2013-07-22 22:55:00
7:15 PM,75.6,73.8,94,29.80,10.0,Calm,Calm,-,N/A,,Scattered Clouds,0,2013-07-22 23:15:00
7:35 PM,77.7,75.4,92,29.79,10.0,WSW,3.5,-,N/A,,Scattered Clouds,250,2013-07-22 23:35:00
7:55 PM,75.4,73.2,93,29.80,10.0,NW,3.5,-,N/A,,Scattered Clouds,310,2013-07-22 23:55:00
8:15 PM,75.2,74.3,97,29.80,10.0,NNW,3.5,-,N/A,,Clear,340,2013-07-23 00:15:00
8:35 PM,75.2,75.2,100,29.80,10.0,Calm,Calm,-,N/A,,Clear,0,2013-07-23 00:35:00
8:55 PM,73.6,73.6,100,29.80,10.0,Calm,Calm,-,N/A,,Scattered Clouds,0,2013-07-23 00:55:00
9:15 PM,72.7,72.7,100,29.80,4.0,Calm,Calm,-,N/A,,Mostly Cloudy,0,2013-07-23 01:15:00
9:35 PM,72.7,72.7,100,29.80,4.0,Calm,Calm,-,N/A,,Scattered Clouds,0,2013-07-23 01:35:00
9:55 PM,72.7,72.7,100,29.82,4.0,Calm,Calm,-,N/A,,Clear,0,2013-07-23 01:55:00
10:15 PM,72.7,72.7,100,29.82,4.0,Calm,Calm,-,N/A,,Clear,0,2013-07-23 02:15:00
10:35 PM,72.7,72.7,100,29.83,1.5,Calm,Calm,-,N/A,,Mist,0,2013-07-23 02:35:00
10:55 PM,70.2,70.2,100,29.84,3.0,Calm,Calm,-,N/A,,Clear,0,2013-07-23 02:55:00
11:15 PM,68.9,68.9,100,29.84,3.0,Calm,Calm,-,N/A,,Clear,0,2013-07-23 03:15:00
11:35 PM,68.2,68.2,100,29.84,2.5,Calm,Calm,-,N/A,,Clear,0,2013-07-23 03:35:00
11:55 PM,68.9,68.9,100,29.84,1.5,Calm,Calm,-,N/A,,Mist,0,2013-07-23 03:55:00